Regional Weather Roundup
Issued by NWS Cleveland, OH

Home | Current Version | Previous Version | Text Only | Print | Product List | Glossary Off
Versions: 1 2 3 4 5 6 7 8 9 10 11 12 13 14 15 16 17 18 19 20 21 22 23 24 25 26 27 28 29 30 31 32 33 34 35 36 37 38 39 40 41 42 43 44 45 46 47 48 49 50

000
ASUS41 KCLE 010610
RWRCLE
OHIO REGIONAL WEATHER ROUNDUP
NATIONAL WEATHER SERVICE WILMINGTON, OH
200 AM EDT TUE SEP 01 2015

NOTE: "FAIR" INDICATES FEW OR NO CLOUDS BELOW 12,000 FEET WITH NO
SIGNIFICANT WEATHER AND/OR OBSTRUCTIONS TO VISIBILITY.

OHZ001>008-015>018-024>027-034-035-043-044-010700-
   NORTHWEST OHIO

CITY           SKY/WX    TMP DP  RH WIND       PRES   REMARKS
DEFIANCE       FAIR      70  68  93 CALM      30.09S FOG
FINDLAY        FAIR      70  67  90 S3        30.09S
TOLEDO EXPRESS FAIR      68  67  96 CALM      30.08S
TOLEDO EXEC    FAIR      72  67  84 CALM      30.09S
LIMA           FAIR      70  67  90 S3        30.11S
$$

OHZ009>014-019>023-028>033-038-089-010700-
   NORTHEAST OHIO

CITY           SKY/WX    TMP DP  RH WIND       PRES   REMARKS
CLE-HOPKINS    FAIR      71  66  84 S5        30.11S
CLE-LAKEFRONT  FAIR      75  66  73 SE8       30.07S
CUY CO. ARPT   NOT AVBL
LORAIN-ELYRIA  FAIR      69  66  90 CALM      30.10S FOG
ASHTABULA      FAIR      63  62  97 CALM      30.11S FOG
AKRON-CANTON   FAIR      72  66  81 CALM      30.12S
WOOSTER        FAIR      65  64  97 CALM      30.12S FOG
MANSFIELD      FAIR      70  68  93 SW5       30.13S
YOUNGSTOWN     FAIR      68  65  90 CALM      30.12R
$$

OHZ042-051>053-060>062-070>072-077>081-010700-
  SOUTHWEST OHIO

CITY           SKY/WX    TMP DP  RH WIND       PRES   REMARKS
CINC-COVINGTON FAIR      70  66  87 CALM      30.12S
CINC-LUNKEN    FAIR      67  67 100 CALM      30.12R
HAMILTON       FAIR      68  66  93 CALM      30.12S FOG
DAYTON         FAIR      71  68  90 SW6       30.13R
WRIGHT-PAT AFB FAIR      68  68  98 CALM      30.11S
DAYTON GENERAL FAIR      71  66  84 CALM      30.12R
WILMINGTON     FAIR      68  65  90 CALM      30.12S
$$

OHZ036-037-039>041-045>050-054>059-063>069-073>076-082>088-010700-
  CENTRAL AND SOUTHEAST OHIO

CITY           SKY/WX    TMP DP  RH WIND       PRES   REMARKS
COLUMBUS       FAIR      72  68  87 CALM      30.10F
OSU AIRPORT    FAIR      69  67  93 CALM      30.11S
BOLTON FIELD   FAIR      67  67  98 CALM      30.12S FOG
RICKENBACK AFB FAIR      68  66  93 CALM      30.11S
NEWARK         FAIR      67  65  93 CALM      30.11S FOG
MARION         FAIR      68  66  93 S6        30.11F FOG
LANCASTER      FAIR      65  63  93 CALM      30.12R FOG
ZANESVILLE     NOT AVBL
NEW PHILLY     FAIR      67  66  97 CALM      30.12S FOG
$$


USA.gov is the U.S. government's official web portal to all federal, state and local government web resources and services.